This is the latest recevied weather packets stored in our database for station/object KM4NDN. If no packets are shown the sender has not sent any weather packets the latest 10 day(s).
| Time | Temp. | Humidity | Pressure | Rain* | Wind** | Luminosity | Snow |
|---|---|---|---|---|---|---|---|
| 1778282394 | 12.22° C | 87% | 1007.2 hPa | 0 mm | - | 34 W/m² | - |
| 1778282091 | 12.22° C | 87% | 1007.4 hPa | 0 mm | - | 30 W/m² | - |
| 1778281788 | 12.22° C | 87% | 1007.4 hPa | 0 mm | - | 23 W/m² | - |
| 1778281484 | 12.22° C | 87% | 1007.4 hPa | 0 mm | - | 43 W/m² | - |
| 1778281182 | 12.22° C | 87% | 1007.5 hPa | 0 mm | - | 31 W/m² | - |
| 1778280878 | 12.22° C | 88% | 1007.3 hPa | 0 mm | - | 40 W/m² | - |
| 1778280576 | 12.22° C | 88% | 1007.2 hPa | 0 mm | - | 86 W/m² | - |
| 1778280273 | 12.22° C | 88% | 1007.3 hPa | 0 mm | - | 82 W/m² | - |
| 1778279970 | 12.22° C | 88% | 1007.5 hPa | 0 mm | - | 65 W/m² | - |
| 1778279668 | 11.67° C | 88% | 1007.6 hPa | 0 mm | - | 73 W/m² | - |
| 1778279365 | 11.67° C | 88% | 1007.6 hPa | 0 mm | - | 86 W/m² | - |
| 1778279063 | 11.67° C | 87% | 1007.6 hPa | 0 mm | - | 31 W/m² | - |
| 1778278759 | 11.67° C | 87% | 1007.4 hPa | 0 mm | - | 56 W/m² | - |
| 1778278454 | 11.67° C | 87% | 1007.6 hPa | 0 mm | - | 59 W/m² | - |
| 1778278151 | 11.67° C | 87% | 1007.5 hPa | 0 mm | - | 64 W/m² | - |
| 1778277848 | 11.67° C | 88% | 1007.4 hPa | 0 mm | - | 41 W/m² | - |
| 1778277544 | 11.67° C | 87% | 1007.5 hPa | 0 mm | - | 89 W/m² | - |
| 1778277241 | 11.67° C | 87% | 1007.7 hPa | 0 mm | - | 23 W/m² | - |
| 1778276938 | 12.22° C | 86% | 1007.6 hPa | 0 mm | - | 26 W/m² | - |
| 1778276635 | 12.22° C | 85% | 1007.4 hPa | 0 mm | - | 41 W/m² | - |
| 1778276331 | 12.22° C | 85% | 1007.5 hPa | 0 mm | - | 71 W/m² | - |
| 1778276028 | 12.22° C | 86% | 1007.6 hPa | 0 mm | - | 55 W/m² | - |
| 1778275724 | 12.22° C | 86% | 1007.6 hPa | 0 mm | - | 53 W/m² | - |
| 1778275421 | 11.67° C | 86% | 1007.4 hPa | 0 mm | - | 103 W/m² | - |
| 1778275116 | 11.67° C | 86% | 1007.6 hPa | 1.78 mm | - | 61 W/m² | - |
* Rain latest hour (hover to see other rain measurements)
** Current wind speed in m/s (hover to see current wind gust speed)